Location: Peebles
(55.6412°N, 3.1714°W)
Time: 16:36:39
(UTC+01:00)

Daily predictions for brighter satellites

Satellite Brightness Start Highest point End
(mag) Time Altitude Azimuth Time Altitude Azimuth Time Altitude Azimuth
USA 215 3.4 19:25:57 10° ESE 19:32:33 81° SSW 19:39:09 10° WNW
Cosmos 1378 Rocket 3.7 19:28:57 10° NNW 19:33:23 83° W 19:37:49 10° S
CSL-04 Rocket 4.1 19:28:39 10° SE 19:33:45 45° ENE 19:38:57 10° N
Cosmos 2074 Rocket 4.1 19:29:14 10° S 19:35:19 57° E 19:41:29 10° NNE
Spot 2 4.3 19:33:15 10° S 19:37:23 73° WSW 19:41:27 10° NNW
Lacrosse 4 Rocket 2.8 19:37:32 10° WSW 19:41:20 37° NW 19:45:11 10° NNE
IRAS Rocket 4.3 19:35:51 10° NNE 19:41:27 60° ESE 19:47:00 10° S
Cosmos 1908 Rocket 3.9 19:37:53 10° SSE 19:42:09 47° E 19:46:27 10° NNE
SME Rocket 4.3 19:38:12 10° NNE 19:42:41 47° WNW 19:46:20 10° SW
Cosmos 1184 Rocket 3.3 19:40:32 10° N 19:43:34 37° ENE 19:46:34 10° SE
CZ-4C R/B 3.0 19:40:32 10° NNE 19:44:09 82° ESE 19:47:44 10° SSW
HJ-1C 3.3 19:41:01 10° SSE 19:44:16 69° ENE 19:47:31 10° N
Cosmos 968 Rocket 3.9 19:40:51 10° SW 19:46:06 69° WNW 19:51:24 10° NNE
Resurs 01 Rocket 3.4 19:43:44 10° E 19:46:14 15° NE 19:48:45 10° NNE
Cosmos 1346 Rocket 2.9 19:42:38 10° N 19:46:38 56° ENE 19:50:36 10° SSE
Ariane Rocket 4.3 19:42:57 10° ESE 19:46:51 23° NE 19:50:47 10° N
OBJECT-B 1.9 19:44:13 10° ESE 19:46:52 25° ENE 19:49:32 10° N
Meteor 2-12 Rocket 4.4 19:41:39 10° S 19:47:43 75° E 19:53:48 10° NNE
Helios 1A Rocket 4.3 19:45:21 10° ESE 19:48:27 21° ENE 19:51:32 10° N
Cosmos 1356 Rocket 4.4 19:44:47 10° SSW 19:49:00 55° WNW 19:53:15 10° N
ARGOS 3.7 19:45:58 10° S 19:51:17 65° WSW 19:56:40 10° NNW
USA 305 3.1 19:48:41 10° W 19:52:53 66° S 19:56:53 11° ESE
DMSP B5D2-2 4.4 19:49:07 10° NNE 19:54:10 43° E 19:59:12 10° SSE
Cosmos 2297 Rocket 3.6 19:49:46 10° NNW 19:54:21 24° NNE 19:58:55 10° E
Cosmos 1538 Rocket 4.1 19:50:28 10° NNW 19:55:51 73° ENE 20:01:14 10° SE
YAOGAN 1 2.8 19:51:34 10° S 19:55:54 77° WSW 20:00:15 10° NNW
Cosmos 158 Rocket 3.9 19:51:22 10° NNW 19:56:25 63° ENE 20:01:19 10° SE
Cosmos 1867 4.4 19:52:07 10° NW 19:57:17 39° NNE 20:02:10 11° E
SJ 16-02 2.3 19:54:05 10° SSE 19:57:47 27° ESE 20:01:33 10° NE
H-2A R/B 3.6 19:53:12 10° SSW 19:57:58 39° W 20:02:54 10° NNW
USA 186 2.5 19:55:41 10° SE 19:58:28 32° ENE 20:01:23 10° N
Okean O Rocket 3.4 19:54:29 10° SSW 19:58:30 35° W 20:02:32 10° NNW
COSMOS 2487 4.2 19:57:46 10° N 19:59:59 16° NE 20:01:43 12° E
Cosmos 1943 Rocket 2.2 19:55:11 10° SSW 20:00:43 69° ESE 20:06:21 10° NE
ISS -3.0 20:01:38 10° WSW 20:04:51 42° S 20:07:19 15° ESE
CZ-2C R/B 2.8 19:59:33 10° NNE 20:05:07 88° WNW 20:10:44 10° SSW
Cosmos 1238 Rocket 3.6 19:59:41 10° S 20:05:42 73° E 20:10:48 10° NNE
Cosmos 2344 4.3 19:58:41 10° W 20:06:03 56° NNW 20:15:00 10° ENE
Cosmos 1441 Rocket 3.9 20:02:43 10° N 20:06:12 33° ENE 20:09:11 12° SE
COSMO-SKYMED 1 3.2 20:02:11 10° N 20:06:29 60° WNW 20:10:46 10° SSW
USA 307 3.1 20:04:24 10° W 20:08:36 64° SSW 20:12:02 15° ESE
Geosat 4.5 20:06:51 10° NE 20:11:34 38° ESE 20:16:13 10° S
Meteor 1-24 Rocket 4.0 20:09:52 10° N 20:14:58 42° ENE 20:19:54 11° SE
IRS-1C Rocket 4.4 20:09:56 10° S 20:15:10 71° WSW 20:20:28 10° NNW
Cosmos 2227 Rocket 3.6 20:12:28 10° NNW 20:17:09 25° NNE 20:21:08 13° ENE
Cosmos 1833 4.2 20:11:52 10° NW 20:17:33 85° WSW 20:23:11 10° SSE
USA 276 3.4 20:16:25 10° WSW 20:19:11 28° S 20:20:47 18° SE
Cosmos 1674 3.3 20:15:49 10° NNW 20:19:28 58° W 20:23:08 10° S
Cosmos 1295 Rocket 4.5 20:13:26 10° S 20:19:40 69° E 20:25:58 10° NNE
Cosmos 2278 Rocket 3.7 20:14:51 10° WSW 20:20:07 37° NW 20:25:24 10° NNE
Cosmos 2369 Rocket 2.3 20:15:19 10° S 20:20:47 52° ESE 20:26:15 10° NE
USA 306 3.2 20:16:45 10° W 20:20:56 58° SSW 20:23:53 18° ESE
Cosmos 1503 Rocket 4.1 20:16:07 10° SSW 20:21:18 82° WNW 20:26:32 10° NNE
NOSS 3-3 (A) 4.5 20:14:57 10° NW 20:22:08 88° NE 20:29:28 14° SE
NOSS 3-3 (C) 4.5 20:15:03 10° NW 20:22:14 87° NE 20:29:33 14° SE
Lacrosse 5 rocket 4.1 20:19:47 10° W 20:22:45 17° SW 20:25:39 10° S
H-2A R/B 1.9 20:18:48 10° NNE 20:23:02 81° ESE 20:27:11 10° SSW
Okean 2 Rocket 4.1 20:19:52 11° SE 20:23:12 26° E 20:26:51 10° NNE
Cosmos 2184 Rocket 4.2 20:18:35 10° SSW 20:24:55 77° WNW 20:31:13 10° N
Cosmos 2327 Rocket 4.5 20:20:55 10° S 20:27:12 79° E 20:33:36 10° NNE
Cosmos 1626 2.3 20:23:41 10° NNW 20:27:24 72° W 20:31:05 10° S
USA 308 3.2 20:23:50 10° W 20:28:02 58° SSW 20:30:44 21° ESE
Cosmos 1777 Rocket 4.0 20:23:10 10° S 20:28:19 60° ESE 20:33:29 10° NNE
Cosmos 2263 Rocket 4.2 20:25:01 10° NNW 20:28:43 18° N 20:32:26 10° NE
CSL-04 Debris 4.3 20:23:47 10° SSE 20:29:11 77° WSW 20:34:37 10° NNW
ATLAS CENTAUR R/B 4.4 20:28:36 10° WNW 20:31:29 16° WSW 20:34:25 10° SSW
APEX 3.9 20:27:14 10° NW 20:32:21 69° WSW 20:35:59 13° SSE
Cosmos 1782 Rocket 3.5 20:29:27 10° S 20:33:53 79° E 20:38:18 10° NNE
BREEZE-M R/B 3.4 20:31:04 10° WSW 20:34:29 34° S 20:36:13 22° SE
Cosmos 2297 4.0 20:28:51 10° SW 20:34:33 73° NW 20:40:20 10° NNE
Cosmos 1610 Rocket 4.5 20:28:25 10° S 20:34:38 89° ESE 20:40:50 10° NNE
Cosmos 1025 Rocket 2.9 20:31:51 10° N 20:36:14 82° ENE 20:40:33 10° SSE
SL-14 R/B 3.2 20:32:34 10° NNW 20:36:35 86° E 20:40:31 10° SSE
CZ-4B R/B 1.0 20:33:37 10° NNE 20:36:41 69° ESE 20:39:47 10° S
Cosmos 1656 Rocket 3.8 20:31:29 10° S 20:36:48 49° ESE 20:42:04 10° NE
Sich 1 Rocket 3.9 20:32:42 10° SSE 20:37:00 44° E 20:41:16 10° NNE
Cosmos 923 Rocket 3.9 20:32:07 10° NNW 20:37:21 73° ENE 20:41:23 17° SE
Cosmos 1536 Rocket 3.9 20:33:08 10° N 20:37:26 46° ENE 20:40:02 21° SE
Cosmos 1726 3.5 20:38:28 21° ENE 20:38:28 21° ENE 20:40:41 10° NE
Cosmos 1805 3.1 20:34:57 10° S 20:38:49 72° E 20:42:42 10° NNE
Cosmos 1354 Rocket 4.3 20:34:00 10° SW 20:39:14 73° WNW 20:44:31 10° NNE
Meteor 2-20 Rocket 4.5 20:33:17 10° N 20:39:23 60° ENE 20:44:56 12° SSE
ERBS 2.4 20:36:44 10° W 20:40:01 67° N 20:41:29 30° E
SeaSat 1 2.4 20:36:15 14° SE 20:40:30 87° SW 20:45:30 10° NW
Cosmos 1315 Rocket 2.8 20:37:48 10° S 20:41:45 60° E 20:45:46 10° NNE
Cosmos 2154 Rocket 4.2 20:38:15 10° SSW 20:44:37 78° WNW 20:51:01 10° N
Cosmos 1400 Rocket 3.9 20:41:15 10° SW 20:45:12 48° WNW 20:49:06 10° N
SJ-6B 2.8 20:41:52 11° SSE 20:45:47 88° ENE 20:49:53 10° NNW
SL-8 Rocket 4.1 20:42:09 10° SSE 20:48:16 56° E 20:54:27 10° NNE
Cosmos 1680 Rocket 3.5 20:44:41 10° NNW 20:49:59 72° ENE 20:53:19 23° SE
CZ-4 R/B 3.8 20:47:33 10° SW 20:50:38 23° W 20:53:45 10° NW
Cosmos 1339 Rocket 4.4 20:44:32 10° NNW 20:50:47 89° ENE 20:56:55 10° S
IGS 5A 3.8 20:50:44 30° ESE 20:52:18 46° ENE 20:56:18 10° N
Cosmos 1470 3.7 20:54:31 28° ENE 20:54:31 28° ENE 20:57:32 10° NNE
Cosmos 2219 4.1 20:49:03 10° NNW 20:54:12 34° NE 20:56:51 23° E
Meteor 2-10 4.3 20:49:44 10° SSE 20:55:04 47° E 21:00:16 10° NNE
MOS 1 4.3 20:50:50 17° SSE 20:55:19 72° ENE 21:01:00 10° NNW
Cosmos 1975 Rocket 4.2 20:51:46 10° NNW 20:56:01 46° W 21:00:17 10° SSW
Cosmos 2263 4.1 20:51:27 10° SSW 20:57:00 67° ESE 21:02:36 10° NE
SL-27 R/B 2.5 20:53:57 10° NNW 20:57:15 68° WSW 20:58:44 30° S
Cosmos 2151 Rocket 4.0 20:55:30 25° SSE 20:57:35 42° E 21:01:50 10° NNE
Cosmos 1733 3.2 20:54:18 10° SSW 20:58:07 82° WNW 21:01:59 10° N
EO 1 Delta rocket 4.1 20:54:11 15° SSE 20:58:20 76° ENE 21:04:30 10° N
ERS-1 Rocket 4.4 20:59:16 20° ENE 21:00:24 22° NE 21:04:12 10° N
Cosmos 1727 Rocket 4.0 20:56:19 10° N 21:02:38 62° ENE 21:06:40 23° SSE
IRS-1A Rocket 4.3 20:59:36 18° SSE 21:04:03 79° ENE 21:10:00 10° NNW
Cosmos 1300 Rocket 3.4 21:01:13 10° S 21:05:35 79° E 21:09:58 10° NNE
Meteor 1-15 Rocket 4.1 21:00:43 10° S 21:06:17 83° ESE 21:11:58 10° NNE
SPOT 1/Viking Rocket 4.0 21:06:35 33° ESE 21:08:19 44° ENE 21:13:12 10° N
Cosmos 1766 3.2 21:05:12 10° SSW 21:09:07 86° W 21:13:02 10° NNE
Cosmos 2112 Rocket 3.9 21:03:49 10° NNW 21:09:07 84° ENE 21:11:51 30° SSE
Meteor 1-22 Rocket 4.2 21:07:55 10° S 21:13:30 63° E 21:19:21 10° NNE
USA 215 4.1 21:11:36 18° SSE 21:16:07 41° SW 21:22:17 10° WNW
Meteor 2-5 Rocket 4.0 21:10:40 10° NNW 21:16:10 67° W 21:21:30 11° S
Cosmos 990 Rocket 4.2 21:14:33 20° S 21:17:48 45° ESE 21:22:44 10° NE
OBJECT-B 2.7 21:16:13 11° SSW 21:18:53 29° W 21:21:44 10° NNW
CENTAUR R/B 2.9 21:14:41 10° S 21:20:16 40° ESE 21:26:54 10° NE
Lacrosse 4 Rocket 4.0 21:18:23 10° NW 21:21:04 17° NNW 21:23:49 10° NNE
DNEPR-1 R/B 3.9 21:16:56 10° NW 21:21:06 53° NNE 21:22:09 42° E
Resurs 01 Rocket 1.5 21:20:47 46° SE 21:22:02 73° ENE 21:26:27 10° NNW
Helios 1A Rocket 3.2 21:21:11 28° S 21:23:15 64° WSW 21:27:19 10° NNW
CARTOSAT-1 4.4 21:24:04 34° ENE 21:24:04 34° ENE 21:27:58 10° N
Resurs 1-3 3.8 21:21:57 26° S 21:24:21 68° WSW 21:28:46 10° NNW
Ariane Rocket 3.0 21:22:33 28° SSE 21:25:18 84° WSW 21:30:27 10° NNW
USA 186 4.1 21:26:49 10° SW 21:29:13 22° W 21:31:49 10° NW
ARIANE 5 R/B 3.7 21:32:16 31° NE 21:32:16 31° NE 21:36:00 10° N
USA 305 3.9 21:28:37 10° W 21:32:25 32° SSW 21:32:54 31° SSW
SPOT 5 3.8 21:32:02 35° ENE 21:32:40 36° ENE 21:37:25 10° N
Cosmos 2366 rocket 3.9 21:26:40 10° S 21:32:48 87° E 21:39:01 10° NNE
Terra 3.0 21:34:21 26° ENE 21:34:21 26° ENE 21:38:18 10° N
COSMOS 2487 2.5 21:31:49 10° NNW 21:34:56 68° WNW 21:34:56 68° WNW
SJ 16-02 2.2 21:31:49 10° SW 21:36:09 51° WNW 21:40:31 10° NNE
Iridium 4 Rocket 3.0 21:32:38 10° N 21:36:53 62° ENE 21:36:53 62° ENE
Cosmos 2341 Rocket 4.4 21:31:25 10° SSW 21:37:42 65° WNW 21:44:06 10° N
Cosmos 2297 Rocket 2.2 21:33:49 10° NNW 21:39:29 65° NE 21:40:51 49° ESE
ISS -1.9 21:38:18 10° W 21:40:17 25° SW 21:40:17 25° SW
Cosmos 1867 3.5 21:35:55 10° NW 21:41:27 89° SW 21:42:49 53° SE
USA 238 DEB 3.7 21:38:24 10° SSW 21:44:40 50° SE 21:51:18 10° NE
USA 238 3.7 21:38:31 10° SSW 21:44:46 49° SE 21:51:24 10° NE
Cosmos 1943 Rocket 3.7 21:39:46 10° WSW 21:44:55 36° NW 21:50:08 10° NNE
Cosmos 2218 Rocket 4.0 21:39:22 10° SSW 21:45:33 79° WNW 21:51:51 10° N
USA 307 4.1 21:44:24 10° W 21:48:05 30° SSW 21:48:05 30° SSW
Cosmos 1898 Rocket 3.4 21:50:27 60° E 21:50:27 60° E 21:55:26 10° NNE
NOSS 3-2 (A) 3.3 21:47:04 10° SW 21:52:46 67° SE 21:59:28 10° NE
Landsat 7 4.1 21:53:40 43° SSW 21:55:01 63° WSW 21:59:47 10° NNW
Okean 1 Rocket 3.4 21:56:17 54° NE 21:56:17 54° NE 21:59:45 10° NNE
Okean 2 Rocket 4.0 21:57:08 12° SW 22:01:03 48° WNW 22:05:22 10° N
Cosmos 2227 Rocket 2.1 21:56:32 10° NNW 22:02:14 69° NE 22:02:56 62° E
Cosmos 2369 Rocket 3.3 21:59:35 10° WSW 22:04:59 44° NW 22:10:22 10° NNE
MetOp-B 4.2 22:07:15 53° SSW 22:08:27 71° WSW 22:13:50 10° NNW
Cosmos 494 Rocket 4.2 22:05:20 10° NNW 22:10:31 56° NE 22:10:31 56° NE
Cosmos 1758 4.4 22:12:24 40° N 22:12:24 40° N 22:15:04 10° N
Cosmos 1048 Rocket 4.0 22:06:30 10° NNW 22:11:53 67° ENE 22:12:00 67° ENE
SPOT 3 Rocket 3.8 22:11:18 50° SSW 22:12:21 62° WSW 22:17:30 10° NNW
Cosmos 1726 3.4 22:12:52 39° WNW 22:12:52 39° WNW 22:16:13 10° N
Cosmos 2082 4.0 22:07:21 10° NNW 22:12:52 50° NE 22:13:16 49° ENE
Cosmos 2263 Rocket 3.3 22:09:30 10° NNW 22:14:29 31° NE 22:15:21 30° NE
USA 281 3.1 22:08:44 10° NNE 22:15:17 62° ESE 22:15:50 59° SE
Cosmos 1892 Rocket 3.8 22:11:02 10° NNW 22:14:56 67° NNW 22:14:56 67° NNW
Spot 2 Rocket 3.4 22:19:51 87° N 22:19:51 87° N 22:24:52 10° NNW
Cosmos 2344 4.3 22:14:05 10° WNW 22:22:00 59° NNE 22:27:20 30° E
Cosmos 2239 Rocket 4.3 22:23:33 67° SSE 22:24:26 82° E 22:30:45 10° NNE
Cosmos 1821 Rocket 4.0 22:25:50 46° SSW 22:27:54 82° WNW 22:34:22 10° N
USA 245 4.1 22:28:58 61° W 22:28:58 61° W 22:33:53 10° NNW
Cosmos 1470 4.2 22:29:49 35° WNW 22:30:01 35° WNW 22:33:43 10° N
Cosmos 1937 Rocket 4.0 22:39:05 50° NNE 22:39:05 50° NNE 22:42:53 10° NNE
ERS-1 Rocket 3.1 22:39:16 70° NNW 22:39:16 70° NNW 22:43:44 10° NNW
Cosmos 2219 3.2 22:33:13 10° NW 22:38:45 73° WSW 22:38:45 73° WSW
Cosmos 1953 4.5 22:42:58 21° NNE 22:42:58 21° NNE 22:44:22 10° NNE
Cosmos 2123 Rocket 4.1 22:40:44 10° NNW 22:47:01 70° W 22:47:45 64° SW
Cosmos 1844 Rocket 4.4 22:54:28 10° NNW 22:58:56 23° NNE 23:00:09 22° NE
Resurs 01 Rocket 3.8 22:58:22 18° W 22:59:02 19° W 23:02:10 10° NW
Lacrosse 4 Rocket 3.9 22:58:34 10° NNW 23:01:15 16° NNE 23:01:29 16° NNE
NOSS 3-2 (C) 4.1 23:06:19 47° NE 23:06:19 47° NE 23:11:12 10° NE
Timation 2 Rocket 4.2 23:01:30 10° NW 23:08:18 66° WSW 23:08:24 66° WSW
ARIANE 5 R/B 4.1 23:09:49 34° NW 23:09:49 34° NW 23:12:43 10° NNW
CENTAUR R/B 2.8 23:04:13 10° WSW 23:10:33 75° NNW 23:18:15 10° NE
SPOT 5 3.8 23:11:16 49° WNW 23:11:16 49° WNW 23:15:45 10° NNW
Terra 2.9 23:13:15 42° NW 23:13:15 42° NW 23:16:33 10° NNW
SJ 16-02 4.4 23:13:27 10° WNW 23:15:48 14° NW 23:18:10 10° N
Cosmos 2297 Rocket 3.5 23:18:16 10° NW 23:22:38 31° W 23:22:38 31° W
Cosmos 1607 4.1 23:18:33 10° NW 23:24:10 69° NNW 23:24:10 69° NNW
Cosmos 1934 Rocket 4.4 23:30:06 56° W 23:30:16 57° WNW 23:36:23 10° N
ATLAS 5 CENTAUR R/B 3.9 23:11:53 10° W 23:30:19 63° NNW 23:32:23 41° NE
USA 238 DEB 3.9 23:28:53 10° WSW 23:35:31 67° NNW 23:42:37 10° NE
USA 238 3.9 23:28:59 10° WSW 23:35:37 67° NNW 23:42:43 10° NE
Cosmos 1980 Rocket 4.4 23:43:26 15° NE 23:43:26 15° NE 23:44:30 10° NE
NOSS 3-2 (A) 4.1 23:37:58 10° W 23:43:55 55° NNW 23:50:59 10° ENE
Cosmos 2227 Rocket 3.7 23:41:03 10° NW 23:44:45 27° W 23:44:45 27° W
Cosmos 1605 Rocket 4.5 23:51:45 56° NW 23:51:45 56° NW 23:57:10 10° N
